Location: Newark
(39.6867°N, 100.6772°W)
Time: 03:31:35
(UTC+00:00)

Vanguard 1 - Pass Details

Date: 22 October 2019
Orbit: 652 x 3831 km, 34.2° (Epoch: 19 November)

Event Time Altitude Azimuth Distance (km) Brightness Sun altitude
Rises 05:54:30 0° 278° (W) 5,298 14.0 -60.4°
Reaches altitude 10° 05:57:30 10° 273° (W) 4,643 13.5 -60.5°
Enters shadow 05:57:52 11° 273° (W) 4,567 13.5 -60.5°
Maximum altitude 06:11:03 52° 203° (SSW) 3,571 - -61.1°
Drops below altitude 10° 06:32:11 10° 135° (SE) 6,907 - -61.3°
Exits shadow 06:37:21 - 132° (SE) 7,846 14.5 -61.2°
Sets 06:37:58 0° 131° (SE) 7,958 14.5 -61.2°
